Year,Month,Day,Hour,Minute,Value (Times are PST for temperature in C)
2009,07,01,00,00,12.60
2009,07,01,00,01,12.60
2009,07,01,00,02,12.60
2009,07,01,00,03,12.60
2009,07,01,00,04,12.60
2009,07,01,00,05,12.50
2009,07,01,00,06,12.50
2009,07,01,00,07,12.50
2009,07,01,00,08,12.50
2009,07,01,00,09,12.50
2009,07,01,00,10,12.50
2009,07,01,00,11,12.40
2009,07,01,00,12,12.40
2009,07,01,00,13,12.40
2009,07,01,00,14,12.40
2009,07,01,00,15,12.40
2009,07,01,00,16,12.40
2009,07,01,00,17,12.40
2009,07,01,00,18,12.40
2009,07,01,00,19,12.40
2009,07,01,00,20,12.40
2009,07,01,00,21,12.40
2009,07,01,00,22,12.40
2009,07,01,00,23,12.40
2009,07,01,00,24,12.40
2009,07,01,00,25,12.40
2009,07,01,00,26,12.40
2009,07,01,00,27,12.40
2009,07,01,00,28,12.30
2009,07,01,00,29,12.30
2009,07,01,00,30,12.30
2009,07,01,00,31,12.30
2009,07,01,00,32,12.30
2009,07,01,00,33,12.30
2009,07,01,00,34,12.30
2009,07,01,00,35,12.30
2009,07,01,00,36,12.30
2009,07,01,00,37,12.30
2009,07,01,00,38,12.30
2009,07,01,00,39,12.30
2009,07,01,00,40,12.30
2009,07,01,00,41,12.30
2009,07,01,00,42,12.30
2009,07,01,00,43,12.30
2009,07,01,00,44,12.20
2009,07,01,00,45,12.20
2009,07,01,00,46,12.20
2009,07,01,00,47,12.20
2009,07,01,00,48,12.10
2009,07,01,00,49,12.10
2009,07,01,00,50,12.10
2009,07,01,00,51,12.10
2009,07,01,00,52,12.10
2009,07,01,00,53,12.10
2009,07,01,00,54,12.00
2009,07,01,00,55,12.00
2009,07,01,00,56,12.00
2009,07,01,00,57,12.00
2009,07,01,00,58,12.00
2009,07,01,00,59,11.90
2009,07,01,01,00,11.90
2009,07,01,01,01,11.90
2009,07,01,01,02,11.90
2009,07,01,01,03,11.90
2009,07,01,01,04,11.90
2009,07,01,01,05,11.90
2009,07,01,01,06,11.80
2009,07,01,01,07,11.80
2009,07,01,01,08,11.80
2009,07,01,01,09,11.80
2009,07,01,01,10,11.80
2009,07,01,01,11,11.80
2009,07,01,01,12,11.80
2009,07,01,01,13,11.70
2009,07,01,01,14,11.70
2009,07,01,01,15,11.70
2009,07,01,01,16,11.60
2009,07,01,01,17,11.60
2009,07,01,01,18,11.60
2009,07,01,01,19,11.60
2009,07,01,01,20,11.60
2009,07,01,01,21,11.60
2009,07,01,01,22,11.50
2009,07,01,01,23,11.40
2009,07,01,01,24,11.40
2009,07,01,01,25,11.40
2009,07,01,01,26,11.40
2009,07,01,01,27,11.30
2009,07,01,01,28,11.30
2009,07,01,01,29,11.30
2009,07,01,01,30,11.30
2009,07,01,01,31,11.20
2009,07,01,01,32,11.20
2009,07,01,01,33,11.20
2009,07,01,01,34,11.20
2009,07,01,01,35,11.20
2009,07,01,01,36,11.20
2009,07,01,01,37,11.20
2009,07,01,01,38,11.10
2009,07,01,01,39,11.10
2009,07,01,01,40,11.10
2009,07,01,01,41,11.10
2009,07,01,01,42,11.10
2009,07,01,01,43,11.10
2009,07,01,01,44,11.10
2009,07,01,01,45,11.10
2009,07,01,01,46,11.10
2009,07,01,01,47,11.10
2009,07,01,01,48,11.10
2009,07,01,01,49,11.10
2009,07,01,01,50,11.10
2009,07,01,01,51,11.10
2009,07,01,01,52,11.10
2009,07,01,01,53,11.10
2009,07,01,01,54,11.10
2009,07,01,01,55,10.90
2009,07,01,01,56,10.90
2009,07,01,01,57,10.90
2009,07,01,01,58,10.90
2009,07,01,01,59,10.90
2009,07,01,02,00,10.90
2009,07,01,02,01,10.90
2009,07,01,02,02,10.90
2009,07,01,02,03,10.90
2009,07,01,02,04,10.90
2009,07,01,02,05,10.90
2009,07,01,02,06,10.90
2009,07,01,02,07,10.90
2009,07,01,02,08,10.90
2009,07,01,02,09,10.90
2009,07,01,02,10,10.90
2009,07,01,02,11,10.90
2009,07,01,02,12,10.90
2009,07,01,02,13,10.90
2009,07,01,02,14,10.80
2009,07,01,02,15,10.80
2009,07,01,02,16,10.80
2009,07,01,02,17,10.80
2009,07,01,02,18,10.80
2009,07,01,02,19,10.80
2009,07,01,02,20,10.80
2009,07,01,02,21,10.80
2009,07,01,02,22,10.70
2009,07,01,02,23,10.70
2009,07,01,02,24,10.70
2009,07,01,02,25,10.70
2009,07,01,02,26,10.70
2009,07,01,02,27,10.70
2009,07,01,02,28,10.70
2009,07,01,02,29,10.70
2009,07,01,02,30,10.60
2009,07,01,02,31,10.60
2009,07,01,02,32,10.60
2009,07,01,02,33,10.60
2009,07,01,02,34,10.60
2009,07,01,02,35,10.60
2009,07,01,02,36,10.60
2009,07,01,02,37,10.60
2009,07,01,02,38,10.60
2009,07,01,02,39,10.60
2009,07,01,02,40,10.60
2009,07,01,02,41,10.60
2009,07,01,02,42,10.70
2009,07,01,02,43,10.70
2009,07,01,02,44,10.70
2009,07,01,02,45,10.60
2009,07,01,02,46,10.60
2009,07,01,02,47,10.60
2009,07,01,02,48,10.60
2009,07,01,02,49,10.60
2009,07,01,02,50,10.60
2009,07,01,02,51,10.60
2009,07,01,02,52,10.60
2009,07,01,02,53,10.60
2009,07,01,02,54,10.60
2009,07,01,02,55,10.60
2009,07,01,02,56,10.60
2009,07,01,02,57,10.70
2009,07,01,02,58,10.70
2009,07,01,02,59,10.80
2009,07,01,03,00,10.80
2009,07,01,03,01,10.80
2009,07,01,03,02,10.80
2009,07,01,03,03,10.80
2009,07,01,03,04,10.70
2009,07,01,03,05,10.70
2009,07,01,03,06,10.70
2009,07,01,03,07,10.70
2009,07,01,03,08,10.70
2009,07,01,03,09,10.70
2009,07,01,03,10,10.80
2009,07,01,03,11,10.80
2009,07,01,03,12,10.80
2009,07,01,03,13,10.90
2009,07,01,03,14,10.90
2009,07,01,03,15,10.90
2009,07,01,03,16,10.90
2009,07,01,03,17,10.90
2009,07,01,03,18,10.90
2009,07,01,03,19,10.90
2009,07,01,03,20,10.90
2009,07,01,03,21,10.90
2009,07,01,03,22,10.90
2009,07,01,03,23,10.90
2009,07,01,03,24,10.80
2009,07,01,03,25,10.80
2009,07,01,03,26,10.80
2009,07,01,03,27,10.80
2009,07,01,03,28,10.70
2009,07,01,03,29,10.70
2009,07,01,03,30,10.70
2009,07,01,03,31,10.70
2009,07,01,03,32,10.60
2009,07,01,03,33,10.60
2009,07,01,03,34,10.60
2009,07,01,03,35,10.60
2009,07,01,03,36,10.60
2009,07,01,03,37,10.60
2009,07,01,03,38,10.50
2009,07,01,03,39,10.40
2009,07,01,03,40,10.40
2009,07,01,03,41,10.40
2009,07,01,03,42,10.40
2009,07,01,03,43,10.30
2009,07,01,03,44,10.30
2009,07,01,03,45,10.30
2009,07,01,03,46,10.30
2009,07,01,03,47,10.30
2009,07,01,03,48,10.20
2009,07,01,03,49,10.20
2009,07,01,03,50,10.20
2009,07,01,03,51,10.20
2009,07,01,03,52,10.10
2009,07,01,03,53,10.10
2009,07,01,03,54,10.10
2009,07,01,03,55,10.10
2009,07,01,03,56,10.10
2009,07,01,03,57,10.10
2009,07,01,03,58,10.10
2009,07,01,03,59,10.10
2009,07,01,04,00,10.00
2009,07,01,04,01,9.90
2009,07,01,04,02,9.90
2009,07,01,04,03,9.90
2009,07,01,04,04,9.90
2009,07,01,04,05,9.90
2009,07,01,04,06,9.90
2009,07,01,04,07,9.90
2009,07,01,04,08,9.90
2009,07,01,04,09,9.90
2009,07,01,04,10,9.90
2009,07,01,04,11,9.90
2009,07,01,04,12,9.90
2009,07,01,04,13,9.80
2009,07,01,04,14,9.80
2009,07,01,04,15,9.80
2009,07,01,04,16,9.80
2009,07,01,04,17,9.80
2009,07,01,04,18,9.80
2009,07,01,04,19,9.80
2009,07,01,04,20,9.70
2009,07,01,04,21,9.70
2009,07,01,04,22,9.70
2009,07,01,04,23,9.70
2009,07,01,04,24,9.70
2009,07,01,04,25,9.70
2009,07,01,04,26,9.70
2009,07,01,04,27,9.70
2009,07,01,04,28,9.70
2009,07,01,04,29,9.70
2009,07,01,04,30,9.70
2009,07,01,04,31,9.70
2009,07,01,04,32,9.70
2009,07,01,04,33,9.70
2009,07,01,04,34,9.70
2009,07,01,04,35,9.70
2009,07,01,04,36,9.70
2009,07,01,04,37,9.70
2009,07,01,04,38,9.70
2009,07,01,04,39,9.70
2009,07,01,04,40,9.60
2009,07,01,04,41,9.60
2009,07,01,04,42,9.60
2009,07,01,04,43,9.60
2009,07,01,04,44,9.60
2009,07,01,04,45,9.50
2009,07,01,04,46,9.50
2009,07,01,04,47,9.50
2009,07,01,04,48,9.50
2009,07,01,04,49,9.50
2009,07,01,04,50,9.50
2009,07,01,04,51,9.40
2009,07,01,04,52,9.40
2009,07,01,04,53,9.40
2009,07,01,04,54,9.40
2009,07,01,04,55,9.30
2009,07,01,04,56,9.30
2009,07,01,04,57,9.30
2009,07,01,04,58,9.20
2009,07,01,04,59,9.20
2009,07,01,05,00,9.20
2009,07,01,05,01,9.20
2009,07,01,05,02,9.20
2009,07,01,05,03,9.20
2009,07,01,05,04,9.20
2009,07,01,05,05,9.20
2009,07,01,05,06,9.20
2009,07,01,05,07,9.20
2009,07,01,05,08,9.20
2009,07,01,05,09,9.20
2009,07,01,05,10,9.20
2009,07,01,05,11,9.20
2009,07,01,05,12,9.20
2009,07,01,05,13,9.20
2009,07,01,05,14,9.20
2009,07,01,05,15,9.20
2009,07,01,05,16,9.20
2009,07,01,05,17,9.20
2009,07,01,05,18,9.20
2009,07,01,05,19,9.20
2009,07,01,05,20,9.20
2009,07,01,05,21,9.20
2009,07,01,05,22,9.20
2009,07,01,05,23,9.20
2009,07,01,05,24,9.10
2009,07,01,05,25,9.10
2009,07,01,05,26,9.10
2009,07,01,05,27,9.10
2009,07,01,05,28,9.10
2009,07,01,05,29,9.00
2009,07,01,05,30,9.00
2009,07,01,05,31,9.00
2009,07,01,05,32,9.00
2009,07,01,05,33,9.00
2009,07,01,05,34,9.00
2009,07,01,05,35,8.90
2009,07,01,05,36,8.90
2009,07,01,05,37,8.90
2009,07,01,05,38,8.90
2009,07,01,05,39,8.90
2009,07,01,05,40,8.80
2009,07,01,05,41,8.80
2009,07,01,05,42,8.80
2009,07,01,05,43,8.80
2009,07,01,05,44,8.70
2009,07,01,05,45,8.70
2009,07,01,05,46,8.70
2009,07,01,05,47,8.70
2009,07,01,05,48,8.70
2009,07,01,05,49,8.70
2009,07,01,05,50,8.70
2009,07,01,05,51,8.70
2009,07,01,05,52,8.70
2009,07,01,05,53,8.70
2009,07,01,05,54,8.70
2009,07,01,05,55,8.70
2009,07,01,05,56,8.70
2009,07,01,05,57,8.70
2009,07,01,05,58,8.70
2009,07,01,05,59,8.70
2009,07,01,06,00,8.80
2009,07,01,06,01,8.80
2009,07,01,06,02,8.90
2009,07,01,06,03,8.90
2009,07,01,06,04,9.00
2009,07,01,06,05,9.00
2009,07,01,06,06,9.10
2009,07,01,06,07,9.10
2009,07,01,06,08,9.10
2009,07,01,06,09,9.20
2009,07,01,06,10,9.20
2009,07,01,06,11,9.20
2009,07,01,06,12,9.20
2009,07,01,06,13,9.20
2009,07,01,06,14,9.20
2009,07,01,06,15,9.30
2009,07,01,06,16,9.30
2009,07,01,06,17,9.30
2009,07,01,06,18,9.30
2009,07,01,06,19,9.30
2009,07,01,06,20,9.40
2009,07,01,06,21,9.40
2009,07,01,06,22,9.40
2009,07,01,06,23,9.40
2009,07,01,06,24,9.50
2009,07,01,06,25,9.50
2009,07,01,06,26,9.60
2009,07,01,06,27,9.60
2009,07,01,06,28,9.70
2009,07,01,06,29,9.70
2009,07,01,06,30,9.70
2009,07,01,06,31,9.80
2009,07,01,06,32,9.80
2009,07,01,06,33,9.90
2009,07,01,06,34,9.90
2009,07,01,06,35,9.90
2009,07,01,06,36,10.00
2009,07,01,06,37,10.10
2009,07,01,06,38,10.10
2009,07,01,06,39,10.20
2009,07,01,06,40,10.30
2009,07,01,06,41,10.30
2009,07,01,06,42,10.40
2009,07,01,06,43,10.40
2009,07,01,06,44,10.60
2009,07,01,06,45,10.60
2009,07,01,06,46,10.80
2009,07,01,06,47,10.90
2009,07,01,06,48,10.90
2009,07,01,06,49,10.90
2009,07,01,06,50,11.10
2009,07,01,06,51,11.10
2009,07,01,06,52,11.20
2009,07,01,06,53,11.20
2009,07,01,06,54,11.30
2009,07,01,06,55,11.40
2009,07,01,06,56,11.40
2009,07,01,06,57,11.50
2009,07,01,06,58,11.60
2009,07,01,06,59,11.70
2009,07,01,07,00,11.80
2009,07,01,07,01,11.90
2009,07,01,07,02,12.00
2009,07,01,07,03,12.00
2009,07,01,07,04,12.10
2009,07,01,07,05,12.20
2009,07,01,07,06,12.30
2009,07,01,07,07,12.30
2009,07,01,07,08,12.40
2009,07,01,07,09,12.50
2009,07,01,07,10,12.60
2009,07,01,07,11,12.70
2009,07,01,07,12,12.80
2009,07,01,07,13,12.80
2009,07,01,07,14,12.90
2009,07,01,07,15,13.00
2009,07,01,07,16,13.20
2009,07,01,07,17,13.40
2009,07,01,07,18,13.60
2009,07,01,07,19,13.70
2009,07,01,07,20,13.90
2009,07,01,07,21,14.00
2009,07,01,07,22,14.20
2009,07,01,07,23,14.30
2009,07,01,07,24,14.40
2009,07,01,07,25,14.50
2009,07,01,07,26,14.60
2009,07,01,07,27,14.70
2009,07,01,07,28,14.80
2009,07,01,07,29,14.80
2009,07,01,07,30,14.80
2009,07,01,07,31,14.80
2009,07,01,07,32,14.80
2009,07,01,07,33,14.80
2009,07,01,07,34,14.90
2009,07,01,07,35,14.90
2009,07,01,07,36,14.90
2009,07,01,07,37,14.90
2009,07,01,07,38,14.90
2009,07,01,07,39,14.90
2009,07,01,07,40,14.90
2009,07,01,07,41,14.90
2009,07,01,07,42,14.90
2009,07,01,07,43,15.00
2009,07,01,07,44,15.00
2009,07,01,07,45,15.00
2009,07,01,07,46,15.10
2009,07,01,07,47,15.10
2009,07,01,07,48,15.20
2009,07,01,07,49,15.30
2009,07,01,07,50,15.30
2009,07,01,07,51,15.40
2009,07,01,07,52,15.40
2009,07,01,07,53,15.50
2009,07,01,07,54,15.50
2009,07,01,07,55,15.60
2009,07,01,07,56,15.70
2009,07,01,07,57,15.70
2009,07,01,07,58,15.80
2009,07,01,07,59,15.80
2009,07,01,08,00,15.90
2009,07,01,08,01,16.00
2009,07,01,08,02,16.10
2009,07,01,08,03,16.10
2009,07,01,08,04,16.20
2009,07,01,08,05,16.20
2009,07,01,08,06,16.20
2009,07,01,08,07,16.20
2009,07,01,08,08,16.30
2009,07,01,08,09,16.30
2009,07,01,08,10,16.30
2009,07,01,08,11,16.40
2009,07,01,08,12,16.40
2009,07,01,08,13,16.40
2009,07,01,08,14,16.40
2009,07,01,08,15,16.40
2009,07,01,08,16,16.40
2009,07,01,08,17,16.30
2009,07,01,08,18,16.10
2009,07,01,08,19,16.00
2009,07,01,08,20,15.90
2009,07,01,08,21,15.80
2009,07,01,08,22,15.80
2009,07,01,08,23,15.80
2009,07,01,08,24,15.80
2009,07,01,08,25,15.80
2009,07,01,08,26,15.80
2009,07,01,08,27,15.90
2009,07,01,08,28,15.90
2009,07,01,08,29,15.80
2009,07,01,08,30,15.80
2009,07,01,08,31,15.80
2009,07,01,08,32,15.90
2009,07,01,08,33,16.00
2009,07,01,08,34,16.10
2009,07,01,08,35,16.10
2009,07,01,08,36,16.20
2009,07,01,08,37,16.30
2009,07,01,08,38,16.40
2009,07,01,08,39,16.50
2009,07,01,08,40,16.60
2009,07,01,08,41,16.70
2009,07,01,08,42,16.70
2009,07,01,08,43,16.70
2009,07,01,08,44,16.70
2009,07,01,08,45,16.60
2009,07,01,08,46,16.50
2009,07,01,08,47,16.40
2009,07,01,08,48,16.30
2009,07,01,08,49,16.30
2009,07,01,08,50,16.20
2009,07,01,08,51,16.20
2009,07,01,08,52,16.10
2009,07,01,08,53,16.10
2009,07,01,08,54,16.10
2009,07,01,08,55,16.10
2009,07,01,08,56,15.90
2009,07,01,08,57,15.90
2009,07,01,08,58,16.00
2009,07,01,08,59,16.10
2009,07,01,09,00,16.00
2009,07,01,09,01,15.90
2009,07,01,09,02,15.80
2009,07,01,09,03,15.70
2009,07,01,09,04,15.60
2009,07,01,09,05,15.60
2009,07,01,09,06,15.70
2009,07,01,09,07,15.80
2009,07,01,09,08,15.90
2009,07,01,09,09,16.10
2009,07,01,09,10,16.20
2009,07,01,09,11,16.30
2009,07,01,09,12,16.20
2009,07,01,09,13,16.20
2009,07,01,09,14,16.20
2009,07,01,09,15,16.10
2009,07,01,09,16,16.10
2009,07,01,09,17,16.00
2009,07,01,09,18,15.90
2009,07,01,09,19,15.90
2009,07,01,09,20,16.00
2009,07,01,09,21,16.10
2009,07,01,09,22,16.10
2009,07,01,09,23,16.20
2009,07,01,09,24,16.30
2009,07,01,09,25,16.30
2009,07,01,09,26,16.10
2009,07,01,09,27,15.90
2009,07,01,09,28,15.80
2009,07,01,09,29,15.70
2009,07,01,09,30,15.60
2009,07,01,09,31,15.60
2009,07,01,09,32,15.60
2009,07,01,09,33,15.70
2009,07,01,09,34,15.80
2009,07,01,09,35,15.90
2009,07,01,09,36,16.00
2009,07,01,09,37,16.10
2009,07,01,09,38,16.10
2009,07,01,09,39,16.20
2009,07,01,09,40,16.30
2009,07,01,09,41,16.40
2009,07,01,09,42,16.50
2009,07,01,09,43,16.60
2009,07,01,09,44,16.70
2009,07,01,09,45,16.80
2009,07,01,09,46,16.90
2009,07,01,09,47,17.00
2009,07,01,09,48,17.20
2009,07,01,09,49,17.20
2009,07,01,09,50,17.20
2009,07,01,09,51,17.30
2009,07,01,09,52,17.30
2009,07,01,09,53,17.30
2009,07,01,09,54,17.30
2009,07,01,09,55,17.30
2009,07,01,09,56,17.30
2009,07,01,09,57,17.30
2009,07,01,09,58,17.30
2009,07,01,09,59,17.30
2009,07,01,10,00,17.30
2009,07,01,10,01,17.30
2009,07,01,10,02,17.30
2009,07,01,10,03,17.30
2009,07,01,10,04,17.40
2009,07,01,10,05,17.40
2009,07,01,10,06,17.60
2009,07,01,10,07,17.70
2009,07,01,10,08,17.80
2009,07,01,10,09,17.80
2009,07,01,10,10,17.90
2009,07,01,10,11,18.00
2009,07,01,10,12,18.10
2009,07,01,10,13,18.20
2009,07,01,10,14,18.20
2009,07,01,10,15,18.10
2009,07,01,10,16,18.20
2009,07,01,10,17,18.20
2009,07,01,10,18,18.20
2009,07,01,10,19,18.30
2009,07,01,10,20,18.40
2009,07,01,10,21,18.40
2009,07,01,10,22,18.40
2009,07,01,10,23,18.30
2009,07,01,10,24,18.30
2009,07,01,10,25,18.30
2009,07,01,10,26,18.20
2009,07,01,10,27,18.20
2009,07,01,10,28,18.20
2009,07,01,10,29,18.20
2009,07,01,10,30,18.20
2009,07,01,10,31,18.10
2009,07,01,10,32,18.10
2009,07,01,10,33,18.00
2009,07,01,10,34,17.90
2009,07,01,10,35,18.10
2009,07,01,10,36,18.10
2009,07,01,10,37,18.10
2009,07,01,10,38,18.10
2009,07,01,10,39,18.10
2009,07,01,10,40,18.20
2009,07,01,10,41,18.30
2009,07,01,10,42,18.40
2009,07,01,10,43,18.60
2009,07,01,10,44,18.70
2009,07,01,10,45,18.80
2009,07,01,10,46,18.90
2009,07,01,10,47,18.80
2009,07,01,10,48,18.80
2009,07,01,10,49,18.80
2009,07,01,10,50,18.90
2009,07,01,10,51,18.90
2009,07,01,10,52,18.90
2009,07,01,10,53,18.90
2009,07,01,10,54,18.90
2009,07,01,10,55,18.90
2009,07,01,10,56,19.00
2009,07,01,10,57,19.10
2009,07,01,10,58,19.00
2009,07,01,10,59,18.90
2009,07,01,11,00,18.90
2009,07,01,11,01,18.90
2009,07,01,11,02,19.00
2009,07,01,11,03,19.00
2009,07,01,11,04,18.90
2009,07,01,11,05,18.90
2009,07,01,11,06,18.90
2009,07,01,11,07,19.00
2009,07,01,11,08,19.10
2009,07,01,11,09,19.10
2009,07,01,11,10,19.20
2009,07,01,11,11,19.20
2009,07,01,11,12,19.20
2009,07,01,11,13,19.10
2009,07,01,11,14,19.10
2009,07,01,11,15,19.10
2009,07,01,11,16,19.20
2009,07,01,11,17,19.20
2009,07,01,11,18,19.30
2009,07,01,11,19,19.40
2009,07,01,11,20,19.40
2009,07,01,11,21,19.50
2009,07,01,11,22,19.60
2009,07,01,11,23,19.60
2009,07,01,11,24,19.60
2009,07,01,11,25,19.50
2009,07,01,11,26,19.50
2009,07,01,11,27,19.40
2009,07,01,11,28,19.50
2009,07,01,11,29,19.50
2009,07,01,11,30,19.40
2009,07,01,11,31,19.50
2009,07,01,11,32,19.60
2009,07,01,11,33,19.70
2009,07,01,11,34,19.70
2009,07,01,11,35,19.70
2009,07,01,11,36,19.80
2009,07,01,11,37,19.80
2009,07,01,11,38,19.70
2009,07,01,11,39,19.60
2009,07,01,11,40,19.50
2009,07,01,11,41,19.50
2009,07,01,11,42,19.60
2009,07,01,11,43,19.70
2009,07,01,11,44,19.70
2009,07,01,11,45,19.60
2009,07,01,11,46,19.40
2009,07,01,11,47,19.30
2009,07,01,11,48,19.10
2009,07,01,11,49,18.80
2009,07,01,11,50,18.30
2009,07,01,11,51,18.10
2009,07,01,11,52,17.90
2009,07,01,11,53,17.80
2009,07,01,11,54,17.80
2009,07,01,11,55,17.90
2009,07,01,11,56,17.90
2009,07,01,11,57,17.90
2009,07,01,11,58,17.90
2009,07,01,11,59,17.80
2009,07,01,12,00,17.70
2009,07,01,12,01,17.50
2009,07,01,12,02,17.40
2009,07,01,12,03,17.50
2009,07,01,12,04,17.50
2009,07,01,12,05,17.40
2009,07,01,12,06,17.30
2009,07,01,12,07,17.20
2009,07,01,12,08,17.20
2009,07,01,12,09,17.30
2009,07,01,12,10,17.40
2009,07,01,12,11,17.50
2009,07,01,12,12,17.70
2009,07,01,12,13,17.80
2009,07,01,12,14,17.90
2009,07,01,12,15,18.00
2009,07,01,12,16,18.10
2009,07,01,12,17,18.10
2009,07,01,12,18,18.20
2009,07,01,12,19,18.40
2009,07,01,12,20,18.50
2009,07,01,12,21,18.60
2009,07,01,12,22,18.80
2009,07,01,12,23,18.90
2009,07,01,12,24,18.90
2009,07,01,12,25,18.90
2009,07,01,12,26,18.90
2009,07,01,12,27,18.90
2009,07,01,12,28,18.70
2009,07,01,12,29,18.70
2009,07,01,12,30,18.50
2009,07,01,12,31,18.20
2009,07,01,12,32,18.00
2009,07,01,12,33,17.80
2009,07,01,12,34,17.80
2009,07,01,12,35,17.90
2009,07,01,12,36,17.80
2009,07,01,12,37,17.90
2009,07,01,12,38,18.00
2009,07,01,12,39,18.20
2009,07,01,12,40,18.20
2009,07,01,12,41,18.20
2009,07,01,12,42,18.30
2009,07,01,12,43,18.40
2009,07,01,12,44,18.50
2009,07,01,12,45,18.50
2009,07,01,12,46,18.50
2009,07,01,12,47,18.50
2009,07,01,12,48,18.60
2009,07,01,12,49,18.80
2009,07,01,12,50,18.80
2009,07,01,12,51,18.80
2009,07,01,12,52,19.00
2009,07,01,12,53,19.10
2009,07,01,12,54,19.10
2009,07,01,12,55,18.90
2009,07,01,12,56,18.90
2009,07,01,12,57,19.10
2009,07,01,12,58,19.00
2009,07,01,12,59,18.80
2009,07,01,13,00,18.70
2009,07,01,13,01,18.80
2009,07,01,13,02,18.80
2009,07,01,13,03,18.80
2009,07,01,13,04,18.90
2009,07,01,13,05,18.80
2009,07,01,13,06,18.80
2009,07,01,13,07,18.90
2009,07,01,13,08,18.90
2009,07,01,13,09,19.00
2009,07,01,13,10,19.10
2009,07,01,13,11,19.20
2009,07,01,13,12,19.40
2009,07,01,13,13,19.60
2009,07,01,13,14,19.80
2009,07,01,13,15,19.80
2009,07,01,13,16,19.70
2009,07,01,13,17,19.50
2009,07,01,13,18,19.40
2009,07,01,13,19,19.40
2009,07,01,13,20,19.50
2009,07,01,13,21,19.60
2009,07,01,13,22,19.70
2009,07,01,13,23,19.90
2009,07,01,13,24,19.90
2009,07,01,13,25,19.90
2009,07,01,13,26,20.10
2009,07,01,13,27,20.20
2009,07,01,13,28,20.20
2009,07,01,13,29,20.20
2009,07,01,13,30,20.30
2009,07,01,13,31,20.40
2009,07,01,13,32,20.50
2009,07,01,13,33,20.40
2009,07,01,13,34,20.40
2009,07,01,13,35,20.50
2009,07,01,13,36,20.60
2009,07,01,13,37,20.60
2009,07,01,13,38,20.50
2009,07,01,13,39,20.50
2009,07,01,13,40,20.40
2009,07,01,13,41,20.30
2009,07,01,13,42,20.30
2009,07,01,13,43,20.30
2009,07,01,13,44,20.40
2009,07,01,13,45,20.30
2009,07,01,13,46,20.20
2009,07,01,13,47,20.30
2009,07,01,13,48,20.40
2009,07,01,13,49,20.40
2009,07,01,13,50,20.50
2009,07,01,13,51,20.40
2009,07,01,13,52,20.40
2009,07,01,13,53,20.30
2009,07,01,13,54,20.30
2009,07,01,13,55,20.20
2009,07,01,13,56,20.10
2009,07,01,13,57,19.90
2009,07,01,13,58,20.00
2009,07,01,13,59,20.10
2009,07,01,14,00,20.20
2009,07,01,14,01,20.40
2009,07,01,14,02,20.60
2009,07,01,14,03,20.50
2009,07,01,14,04,20.40
2009,07,01,14,05,20.20
2009,07,01,14,06,20.10
2009,07,01,14,07,20.10
2009,07,01,14,08,19.90
2009,07,01,14,09,19.70
2009,07,01,14,10,19.60
2009,07,01,14,11,19.50
2009,07,01,14,12,19.30
2009,07,01,14,13,19.20
2009,07,01,14,14,19.20
2009,07,01,14,15,19.40
2009,07,01,14,16,19.40
2009,07,01,14,17,19.20
2009,07,01,14,18,19.00
2009,07,01,14,19,18.90
2009,07,01,14,20,18.90
2009,07,01,14,21,18.90
2009,07,01,14,22,18.70
2009,07,01,14,23,18.60
2009,07,01,14,24,18.50
2009,07,01,14,25,18.40
2009,07,01,14,26,18.40
2009,07,01,14,27,18.40
2009,07,01,14,28,18.50
2009,07,01,14,29,18.60
2009,07,01,14,30,18.60
2009,07,01,14,31,18.60
2009,07,01,14,32,18.70
2009,07,01,14,33,18.90
2009,07,01,14,34,19.00
2009,07,01,14,35,19.10
2009,07,01,14,36,19.10
2009,07,01,14,37,19.10
2009,07,01,14,38,19.10
2009,07,01,14,39,19.10
2009,07,01,14,40,19.00
2009,07,01,14,41,18.80
2009,07,01,14,42,18.80
2009,07,01,14,43,18.80
2009,07,01,14,44,18.90
2009,07,01,14,45,18.90
2009,07,01,14,46,19.10
2009,07,01,14,47,19.30
2009,07,01,14,48,19.30
2009,07,01,14,49,19.40
2009,07,01,14,50,19.50
2009,07,01,14,51,19.50
2009,07,01,14,52,19.50
2009,07,01,14,53,19.30
2009,07,01,14,54,19.20
2009,07,01,14,55,19.10
2009,07,01,14,56,19.10
2009,07,01,14,57,19.10
2009,07,01,14,58,19.10
2009,07,01,14,59,18.90
2009,07,01,15,00,18.90
2009,07,01,15,01,18.90
2009,07,01,15,02,19.00
2009,07,01,15,03,19.10
2009,07,01,15,04,18.90
2009,07,01,15,05,18.90
2009,07,01,15,06,18.70
2009,07,01,15,07,18.70
2009,07,01,15,08,18.80
2009,07,01,15,09,19.00
2009,07,01,15,10,19.10
2009,07,01,15,11,19.20
2009,07,01,15,12,19.20
2009,07,01,15,13,19.10
2009,07,01,15,14,19.10
2009,07,01,15,15,19.10
2009,07,01,15,16,19.20
2009,07,01,15,17,19.30
2009,07,01,15,18,19.20
2009,07,01,15,19,19.20
2009,07,01,15,20,19.10
2009,07,01,15,21,19.00
2009,07,01,15,22,18.90
2009,07,01,15,23,18.90
2009,07,01,15,24,18.90
2009,07,01,15,25,19.10
2009,07,01,15,26,19.20
2009,07,01,15,27,19.40
2009,07,01,15,28,19.50
2009,07,01,15,29,19.50
2009,07,01,15,30,19.50
2009,07,01,15,31,19.60
2009,07,01,15,32,19.60
2009,07,01,15,33,19.70
2009,07,01,15,34,19.80
2009,07,01,15,35,19.80
2009,07,01,15,36,19.90
2009,07,01,15,37,20.00
2009,07,01,15,38,20.00
2009,07,01,15,39,20.00
2009,07,01,15,40,20.10
2009,07,01,15,41,20.10
2009,07,01,15,42,20.30
2009,07,01,15,43,20.40
2009,07,01,15,44,20.40
2009,07,01,15,45,20.30
2009,07,01,15,46,20.30
2009,07,01,15,47,20.40
2009,07,01,15,48,20.60
2009,07,01,15,49,20.70
2009,07,01,15,50,20.80
2009,07,01,15,51,20.70
2009,07,01,15,52,20.60
2009,07,01,15,53,20.50
2009,07,01,15,54,20.40
2009,07,01,15,55,20.30
2009,07,01,15,56,20.30
2009,07,01,15,57,20.30
2009,07,01,15,58,20.30
2009,07,01,15,59,20.30
2009,07,01,16,00,20.30
2009,07,01,16,01,20.40
2009,07,01,16,02,20.60
2009,07,01,16,03,20.80
2009,07,01,16,04,20.90
2009,07,01,16,05,21.10
2009,07,01,16,06,21.20
2009,07,01,16,07,21.30
2009,07,01,16,08,21.40
2009,07,01,16,09,21.50
2009,07,01,16,10,21.50
2009,07,01,16,11,21.40
2009,07,01,16,12,21.40
2009,07,01,16,13,21.30
2009,07,01,16,14,21.40
2009,07,01,16,15,21.50
2009,07,01,16,16,21.60
2009,07,01,16,17,21.60
2009,07,01,16,18,21.50
2009,07,01,16,19,21.40
2009,07,01,16,20,21.50
2009,07,01,16,21,21.60
2009,07,01,16,22,21.60
2009,07,01,16,23,21.60
2009,07,01,16,24,21.60
2009,07,01,16,25,21.50
2009,07,01,16,26,21.40
2009,07,01,16,27,21.40
2009,07,01,16,28,21.40
2009,07,01,16,29,21.50
2009,07,01,16,30,21.60
2009,07,01,16,31,21.60
2009,07,01,16,32,21.80
2009,07,01,16,33,21.90
2009,07,01,16,34,22.10
2009,07,01,16,35,22.10
2009,07,01,16,36,22.20
2009,07,01,16,37,22.20
2009,07,01,16,38,22.30
2009,07,01,16,39,22.40
2009,07,01,16,40,22.30
2009,07,01,16,41,22.20
2009,07,01,16,42,22.10
2009,07,01,16,43,22.10
2009,07,01,16,44,22.10
2009,07,01,16,45,22.10
2009,07,01,16,46,22.20
2009,07,01,16,47,22.30
2009,07,01,16,48,22.50
2009,07,01,16,49,22.60
2009,07,01,16,50,22.60
2009,07,01,16,51,22.60
2009,07,01,16,52,22.60
2009,07,01,16,53,22.60
2009,07,01,16,54,22.70
2009,07,01,16,55,22.70
2009,07,01,16,56,22.60
2009,07,01,16,57,22.50
2009,07,01,16,58,22.50
2009,07,01,16,59,22.60
2009,07,01,17,00,22.70
2009,07,01,17,01,22.80
2009,07,01,17,02,22.90
2009,07,01,17,03,22.90
2009,07,01,17,04,23.00
2009,07,01,17,05,22.90
2009,07,01,17,06,22.80
2009,07,01,17,07,22.60
2009,07,01,17,08,22.60
2009,07,01,17,09,22.60
2009,07,01,17,10,22.50
2009,07,01,17,11,22.50
2009,07,01,17,12,22.40
2009,07,01,17,13,22.40
2009,07,01,17,14,22.30
2009,07,01,17,15,22.30
2009,07,01,17,16,22.30
2009,07,01,17,17,22.20
2009,07,01,17,18,22.20
2009,07,01,17,19,22.30
2009,07,01,17,20,22.50
2009,07,01,17,21,22.50
2009,07,01,17,22,22.50
2009,07,01,17,23,22.50
2009,07,01,17,24,22.50
2009,07,01,17,25,22.60
2009,07,01,17,26,22.70